{"data":{"norad_id":64188,"epoch":"2026-05-25T02:28:02.523072Z","epoch_age_seconds":59369,"freshness":"FRESH","line1":"1 64188U 25113U   26145.10280698  .00011647  00000+0  40449-3 0  9993","line2":"2 64188  53.1586  96.2407 0001680 151.2182 208.8912 15.30221376 56764","mean_motion":15.30221376,"eccentricity":0.000168,"inclination_deg":53.1586,"raan_deg":96.2407,"arg_perigee_deg":151.2182,"mean_anomaly_deg":208.8912,"bstar":0.00040449,"rev_number":5676,"period_min":94.104031128108,"perigee_km":473.99989285415,"apogee_km":476.30259770457,"semimajor_km":6853.2882452794,"source":"CELESTRAK","updated_at":"2026-05-25T13:38:20.313573Z"}}